Preview of NWS' New Version of Forecast
This preview is not operational and should not be used for support decisions.

Regional Weather Roundup (RWR)

Issued by National Weather Service (NWS)

                            
000
ASUS45 KBOU 190610
RWRCO 

WEATHER ROUNDUP FOR COLORADO
NATIONAL WEATHER SERVICE DENVER/BOULDER CO
1200 AM MDT FRI APR 19 2019

NOTE: "FAIR" INDICATES FEW OR NO CLOUDS BELOW 12000 FEET WITH NO
SIGNIFICANT WEATHER AND/OR OBSTRUCTIONS TO VISIBILITY.

COZ001>005-013-030-031-190700-
...NORTHWEST COLORADO...
  
CITY           SKY/WX    TMP DP  RH WIND       PRES   REMARKS
CRAIG          FAIR      42  30  62 CALM      30.29R                  
HAYDEN         FAIR      45  29  53 W7        30.31R                  
MEEKER         FAIR      38  30  73 CALM      30.30S                  
RANGELY        FAIR      42  32  70 NE3       30.27R                  
RABBIT EARS PA FAIR      30  28  93 W14G22    30.39F WCI  20          
STEAMBOAT SPGS FAIR      41  28  60 E6        30.29S                  
WALDEN         FAIR      36  25  64 SE3       30.31F                  
$$

COZ006>008-011-190700-
...WEST CENTRAL VALLEYS...
  
CITY           SKY/WX    TMP DP  RH WIND       PRES   REMARKS
GRAND JUNCTION FAIR      49  28  44 E5        30.23R                  
MONTROSE       FAIR      47  25  42 SE9       30.30S                  
EAGLE          MOCLDY    46  27  47 E6        30.32R                  
RIFLE          FAIR      46  27  47 E5        30.27S                  
DELTA          FAIR      50  28  42 CALM      30.28R                  
NUCLA          FAIR      46  23  39 E13       30.32S                  
$$

COZ017>023-064>068-190700-
...SOUTHWEST COLORADO...
  
CITY           SKY/WX    TMP DP  RH WIND       PRES   REMARKS
DURANGO        FAIR      49  17  28 N3        30.27R                  
CORTEZ         FAIR      38  27  64 NE10      30.29S                  
PAGOSA SPRINGS FAIR      40  23  50 NE3       30.32R                  
TELLURIDE      FAIR      36  23  60 CALM      30.44R                  
WOLF CREEK PAS FAIR      28  16  59 N10       30.51S WCI  19          
$$

COZ009-010-012-014-032>034-037-058>063-190700-
...CENTRAL COLORADO...
  
CITY           SKY/WX    TMP DP  RH WIND       PRES   REMARKS
ASPEN          MOCLDY    37  25  61 S7        30.34S                  
BUENA VISTA    FAIR      35  20  55 NW7       30.31S WCI  29          
COPPER MTN     CLOUDY    34  23  64 W15       30.46S WCI  24          
BERTHOUD PASS  CLOUDY    27  16  63 NW45G55   30.38S WCI   7          
COTTONWOOD PAS FAIR      41  19  42 W15G24    30.36F                  
GUNNISON       FAIR      36  24  62 CALM      30.34F                  
GRANBY         CLOUDY    41  28  59 CALM      30.33S                  
KREMMLING      FAIR      36  27  69 SE3       30.32R                  
LEADVILLE      FAIR      30  20  66 NE6       30.38S WCI  24          
MONARCH PASS   FAIR      28  18  64 W14       30.56S WCI  17          
SALIDA         FAIR      44  20  38 N3        30.37S                  
SUNLIGHT       FAIR      32  19  59 W8        30.49S WCI  25          
WILKERSON PASS FAIR      32  19  59 NW7       30.42S WCI  26          
$$

COZ069>075-190700-
...SAN LUIS VALLEY/SANGRE DE CRISTO MOUNTAINS...
  
CITY           SKY/WX    TMP DP  RH WIND       PRES   REMARKS
ALAMOSA        FAIR      44  18  35 NW10      30.29R                  
DEL NORTE      FAIR      46  19  33 W16G23    30.32R                  
LA VETA PASS   NOT AVBL                                               
SAGUACHE       FAIR      43  21  42 CALM      30.31S                  
$$

COZ035-036-038>040-190700-
...NORTHERN COLORADO FRONT RANGE...
  
CITY           SKY/WX    TMP DP  RH WIND       PRES   REMARKS
DENVER INTL AP MOCLDY    47  23  38 CALM      30.24S                  
AURORA         PTCLDY    41  26  53 SW3       30.25S                  
FRONT RANGE AP FAIR      46  28  48 CALM      30.25S                  
ERIE MUNI ARPT MOCLDY    48  30  51 CALM      30.29S                  
BOULDER MUN AP CLOUDY    50  27  40 CALM      30.24S                  
CENTENNIAL     FAIR      42  26  53 CALM      30.24F                  
BROOMFIELD     FAIR      50  23  34 E3        30.25F                  
FORT COLLINS   NOT AVBL                                               
LONGMONT       CLOUDY    52  26  35 CALM      30.25S                  
$$

COZ041-046-047-076>085-087-088-190700-
...PIKES PEAK/PALMER DIVIDE AND SOUTHERN FOOTHILLS...
  
CITY           SKY/WX    TMP DP  RH WIND       PRES   REMARKS
COLO. SPRINGS  FAIR      44  21  40 N5        30.26R                  
A. F. ACADEMY  FAIR      37  24  59 NW6       30.24R                  
SCHRIEVER AFB  NOT AVBL                                               
CHEYENNE MTN   FAIR      42  23  46 NW3       30.22R                  
ELLICOTT         N/A    N/A N/A N/A NE7       30.24R                  
FALCON         FAIR      38  19  46 N9        30.27S                  
FORT CARSON    FAIR      44  24  46 CALM      30.25S                  
LIMON          FAIR      31  26  82 NW6       30.23S WCI  25          
MONUMENT HILL  FAIR      32  21  64 CALM      30.28S                  
CANON CITY     NOT AVBL                                               
WALSENBURG     NOT AVBL                                               
TRINIDAD       FAIR      35  29  78 W6        30.27R WCI  30          
$$

COZ042>045-048>051-090-091-190700-
...NORTHEAST COLORADO...
  
CITY           SKY/WX    TMP DP  RH WIND       PRES   REMARKS
GREELEY ARPT   FAIR      39  25  57 NW3       30.24F                  
AKRON          FAIR      35  25  66 E7        30.22R WCI  29          
BURLINGTON     FAIR      30  24  78 W8        30.22R WCI  22          
WRAY           FAIR      34  28  80 W6        30.21R WCI  29          
YUMA           NOT AVBL                                               
STERLING       FAIR      32  28  86 CALM      30.21R                  
HOLYOKE        FAIR      36  32  87 W7        30.20S                  
FORT MORGAN    NOT AVBL                                               
$$

COZ086-089-092>099-190700-
...SOUTHEAST COLORADO...
  
CITY           SKY/WX    TMP DP  RH WIND       PRES   REMARKS
PUEBLO         FAIR      39  23  52 CALM      30.23S                  
LA JUNTA       FAIR      47  24  40 CALM      30.23R                  
LAMAR          FAIR      34  24  67 SW3       30.20S                  
SPRINGFIELD      N/A     31  24  75 NW8       30.20F WCI  23          
$$